Météo par heure à Kistendey

Ce jour, 8 Mars, Lundi

Heure Température Précipitation Vent Pression Humidité
00:00 -8°C° 0.2 mm 10 m/s 733 mmHg 94%
01:00 -8°C° 0.3 mm 9 m/s 733 mmHg 93%
02:00 -6°C° 0.3 mm 9 m/s 733 mmHg 93%
03:00 -6°C° 0.3 mm 8 m/s 733 mmHg 93%
04:00 -7°C° 0.2 mm 7 m/s 733 mmHg 90%
05:00 -7°C° 0.2 mm 5 m/s 733 mmHg 88%
06:00 -9°C° 0.2 mm 4 m/s 734 mmHg 85%
07:00 -8°C° 0 mm 4 m/s 734 mmHg 85%
08:00 -7°C° 0 mm 4 m/s 734 mmHg 85%
09:00 -7°C° 0 mm 5 m/s 734 mmHg 85%
10:00 -6°C° 0.2 mm 5 m/s 734 mmHg 88%
11:00 -6°C° 0.2 mm 5 m/s 734 mmHg 91%
12:00 -5°C° 0.2 mm 4 m/s 734 mmHg 94%
13:00 -5°C° 0.4 mm 5 m/s 734 mmHg 92%
14:00 -5°C° 0.4 mm 5 m/s 734 mmHg 90%
15:00 -5°C° 0.4 mm 6 m/s 734 mmHg 89%
16:00 -6°C° 0 mm 5 m/s 734 mmHg 87%
17:00 -7°C° 0 mm 5 m/s 735 mmHg 86%
18:00 -8°C° 0 mm 4 m/s 735 mmHg 85%
19:00 -10°C° 0 mm 4 m/s 736 mmHg 87%
20:00 -10°C° 0 mm 3 m/s 736 mmHg 89%
21:00 -13°C° 0 mm 3 m/s 737 mmHg 91%
22:00 -13°C° 0 mm 2 m/s 737 mmHg 91%
23:00 -14°C° 0 mm 2 m/s 737 mmHg 91%

Demain, 9 Mars, Mardi

Heure Température Précipitation Vent Pression Humidité
00:00 -14°C° 0 mm 2 m/s 738 mmHg 91%
01:00 -13°C° 0 mm 1 m/s 738 mmHg 91%
02:00 -14°C° 0 mm 1 m/s 738 mmHg 91%
03:00 -14°C° 0 mm 1 m/s 738 mmHg 91%
04:00 -15°C° 0 mm 1 m/s 738 mmHg 92%
05:00 -15°C° 0 mm 1 m/s 738 mmHg 92%
06:00 -16°C° 0 mm 1 m/s 738 mmHg 93%
07:00 -14°C° 0 mm 1 m/s 739 mmHg 92%
08:00 -13°C° 0 mm 1 m/s 739 mmHg 92%
09:00 -12°C° 0 mm 1 m/s 739 mmHg 91%
10:00 -11°C° 0 mm 1 m/s 739 mmHg 90%
11:00 -10°C° 0 mm 1 m/s 739 mmHg 89%
12:00 -10°C° 0 mm 2 m/s 740 mmHg 88%
13:00 -9°C° 0 mm 2 m/s 740 mmHg 89%
14:00 -9°C° 0 mm 2 m/s 740 mmHg 90%
15:00 -10°C° 0 mm 3 m/s 740 mmHg 91%
16:00 -12°C° 0 mm 3 m/s 740 mmHg 92%
17:00 -12°C° 0 mm 3 m/s 740 mmHg 93%
18:00 -13°C° 0 mm 3 m/s 741 mmHg 94%
19:00 -14°C° 0 mm 3 m/s 741 mmHg 94%
20:00 -15°C° 0 mm 3 m/s 742 mmHg 94%
21:00 -18°C° 0 mm 4 m/s 742 mmHg 95%
22:00 -18°C° 0 mm 4 m/s 742 mmHg 95%
23:00 -19°C° 0 mm 4 m/s 743 mmHg 96%

Après-demain, 10 Mars, Mercredi

Heure Température Précipitation Vent Pression Humidité
00:00 -20°C° 0 mm 4 m/s 743 mmHg 97%
01:00 -21°C° 0 mm 3 m/s 743 mmHg 97%
02:00 -21°C° 0 mm 3 m/s 744 mmHg 97%
03:00 -22°C° 0 mm 3 m/s 744 mmHg 98%
04:00 -22°C° 0 mm 3 m/s 745 mmHg 98%
05:00 -23°C° 0 mm 3 m/s 745 mmHg 98%
06:00 -24°C° 0 mm 3 m/s 745 mmHg 99%
07:00 -24°C° 0 mm 4 m/s 746 mmHg 97%
08:00 -24°C° 0 mm 4 m/s 746 mmHg 96%
09:00 -24°C° 0 mm 4 m/s 747 mmHg 95%
10:00 -23°C° 0 mm 4 m/s 747 mmHg 94%
11:00 -22°C° 0 mm 4 m/s 747 mmHg 92%
12:00 -22°C° 0 mm 4 m/s 748 mmHg 91%
13:00 -20°C° 0 mm 4 m/s 748 mmHg 90%
14:00 -20°C° 0 mm 4 m/s 748 mmHg 89%
15:00 -20°C° 0 mm 4 m/s 748 mmHg 88%
16:00 -22°C° 0 mm 4 m/s 748 mmHg 91%
17:00 -22°C° 0 mm 3 m/s 748 mmHg 93%
18:00 -23°C° 0 mm 3 m/s 748 mmHg 96%
19:00 -24°C° 0 mm 3 m/s 749 mmHg 97%
20:00 -25°C° 0 mm 3 m/s 749 mmHg 97%
21:00 -26°C° 0 mm 3 m/s 750 mmHg 98%
22:00 -26°C° 0 mm 3 m/s 750 mmHg 98%
23:00 -27°C° 0 mm 3 m/s 750 mmHg 98%

11 Mars, Jeudi

Heure Température Précipitation Vent Pression Humidité
00:00 -29°C° 0 mm 3 m/s 750 mmHg 98%
01:00 -28°C° 0 mm 2 m/s 751 mmHg 98%
02:00 -28°C° 0 mm 2 m/s 751 mmHg 97%
03:00 -29°C° 0 mm 2 m/s 751 mmHg 96%
04:00 -30°C° 0 mm 2 m/s 752 mmHg 96%
05:00 -30°C° 0 mm 2 m/s 752 mmHg 96%
06:00 -30°C° 0 mm 2 m/s 752 mmHg 96%
07:00 -29°C° 0 mm 2 m/s 752 mmHg 95%
08:00 -28°C° 0 mm 2 m/s 753 mmHg 95%
09:00 -27°C° 0 mm 2 m/s 753 mmHg 94%
10:00 -25°C° 0 mm 2 m/s 753 mmHg 91%
11:00 -23°C° 0 mm 2 m/s 754 mmHg 88%
12:00 -21°C° 0 mm 2 m/s 754 mmHg 85%
13:00 -20°C° 0 mm 2 m/s 754 mmHg 85%
14:00 -19°C° 0 mm 2 m/s 754 mmHg 85%
15:00 -18°C° 0 mm 2 m/s 754 mmHg 85%
16:00 -20°C° 0 mm 2 m/s 754 mmHg 88%
17:00 -21°C° 0 mm 2 m/s 754 mmHg 91%
18:00 -23°C° 0 mm 2 m/s 754 mmHg 94%
19:00 -24°C° 0 mm 2 m/s 754 mmHg 93%
20:00 -24°C° 0 mm 2 m/s 754 mmHg 93%
21:00 -25°C° 0 mm 2 m/s 755 mmHg 92%
22:00 -22°C° 0 mm 1 m/s 755 mmHg 92%
23:00 -22°C° 0 mm 1 m/s 755 mmHg 93%

12 Mars, Vendredi

Heure Température Précipitation Vent Pression Humidité
00:00 -23°C° 0 mm 1 m/s 755 mmHg 93%
01:00 -23°C° 0 mm 1 m/s 755 mmHg 93%
02:00 -23°C° 0 mm 1 m/s 755 mmHg 93%
03:00 -23°C° 0 mm 1 m/s 755 mmHg 94%
04:00 -24°C° 0 mm 1 m/s 755 mmHg 94%
05:00 -24°C° 0 mm 0 m/s 755 mmHg 94%
06:00 -24°C° 0 mm 0 m/s 755 mmHg 94%
07:00 -23°C° 0 mm 1 m/s 755 mmHg 92%
08:00 -21°C° 0 mm 1 m/s 755 mmHg 90%
09:00 -19°C° 0 mm 1 m/s 755 mmHg 88%
10:00 -18°C° 0 mm 1 m/s 755 mmHg 85%
11:00 -18°C° 0 mm 2 m/s 755 mmHg 83%
12:00 -17°C° 0 mm 2 m/s 755 mmHg 80%
13:00 -16°C° 0 mm 2 m/s 754 mmHg 81%
14:00 -17°C° 0 mm 3 m/s 754 mmHg 83%
15:00 -16°C° 0 mm 3 m/s 754 mmHg 84%
16:00 -17°C° 0 mm 3 m/s 753 mmHg 85%
17:00 -18°C° 0 mm 3 m/s 753 mmHg 87%
18:00 -20°C° 0 mm 4 m/s 752 mmHg 88%
19:00 -20°C° 0 mm 4 m/s 752 mmHg 87%
20:00 -21°C° 0 mm 5 m/s 752 mmHg 85%
21:00 -21°C° 0 mm 5 m/s 752 mmHg 83%
22:00 -21°C° 0 mm 5 m/s 751 mmHg 83%
23:00 -20°C° 0 mm 5 m/s 751 mmHg 82%

13 Mars, Samedi

Heure Température Précipitation Vent Pression Humidité
00:00 -21°C° 0 mm 6 m/s 751 mmHg 82%
01:00 -20°C° 0 mm 6 m/s 750 mmHg 81%
02:00 -20°C° 0 mm 6 m/s 750 mmHg 80%
03:00 -18°C° 0 mm 6 m/s 749 mmHg 79%
04:00 -18°C° 0 mm 6 m/s 749 mmHg 79%
05:00 -18°C° 0 mm 6 m/s 749 mmHg 78%
06:00 -17°C° 0 mm 6 m/s 748 mmHg 78%
07:00 -18°C° 0 mm 7 m/s 748 mmHg 77%
08:00 -17°C° 0 mm 7 m/s 748 mmHg 76%
09:00 -16°C° 0 mm 8 m/s 748 mmHg 75%
10:00 -16°C° 0 mm 8 m/s 748 mmHg 75%
11:00 -15°C° 0 mm 8 m/s 748 mmHg 76%
12:00 -13°C° 0 mm 8 m/s 748 mmHg 76%
13:00 -12°C° 0 mm 8 m/s 747 mmHg 76%
14:00 -12°C° 0 mm 8 m/s 747 mmHg 76%
15:00 -12°C° 0 mm 8 m/s 747 mmHg 75%
16:00 -12°C° 0 mm 7 m/s 746 mmHg 76%
17:00 -12°C° 0 mm 7 m/s 746 mmHg 77%
18:00 -12°C° 0 mm 7 m/s 746 mmHg 78%
19:00 -12°C° 0.1 mm 7 m/s 746 mmHg 83%
20:00 -12°C° 0.1 mm 7 m/s 746 mmHg 87%
21:00 -12°C° 0.1 mm 7 m/s 746 mmHg 92%
22:00 -12°C° 0.1 mm 7 m/s 746 mmHg 92%
23:00 -11°C° 0.1 mm 6 m/s 746 mmHg 93%
Voir plus

Nous avons besoin de votre consentement

Meteoprog et ses fournisseurs de services peuvent stocker et accéder à des données personnelles telles que des cookies, des identifiants d'appareils ou d'autres technologies similaires sur votre appareil et traiter ces données pour personnaliser le contenu et les publicités, ainsi que pour fournir des fonctionnalités de médias sociaux et analyser le trafic.

  • Stocker et/ou accéder à des informations sur votre appareil

    Des cookies, des identifiants d'appareils ou d'autres informations peuvent être stockés ou accessibles sur votre appareil aux fins indiquées ci-dessus.

  • Annonces et contenus personnalisés, mesure des annonces et des contenus, connaissance de l'audience et développement de produits

    Les annonces et le contenu peuvent être personnalisés en fonction d'un profil. D'autres données peuvent être ajoutées pour mieux personnaliser les annonces et le contenu. Les performances des publicités et du contenu peuvent être mesurées. Il est possible d'obtenir des informations sur le public qui a vu les publicités et le contenu. Ces données peuvent être utilisées pour développer ou améliorer l'expérience de l'utilisateur, les systèmes et les logiciels.

En cliquant sur "J'accepte", vous autorisez l'utilisation de cookies, des identifiants d'appareils, des balises web ou d'autres technologies similaires. Vos paramètres peuvent être modifiés dans le navigateur de votre appareil.

Dans certains cas, des intérêts légitimes peuvent être invoqués plutôt qu'un consentement. Vous pouvez en savoir plus à ce sujet dans notre Politique de confidentialité et de cookies.